| time (UTC) | temp F | wind direction | speed MPH | gust MPH | rain 1hr in | rain 24hr in | rain mn in | humidity % | barometer mb |
| 20260507011734 | 48 | 315 | 2.0 | 3.0 | 0.00 | 0.00 | 0.00 | 10 | 1008.3 |
| 20260507011224 | 48 | 315 | 2.0 | 4.0 | 0.00 | 0.00 | 0.00 | 10 | 1008.4 |
| 20260507010203 | 48 | 315 | 2.0 | 4.0 | 0.00 | 0.00 | 0.00 | 10 | 1008.2 |
| 20260507005653 | 48 | 315 | 2.0 | 3.0 | 0.00 | 0.00 | 0.00 | 10 | 1008.2 |
| 20260507005143 | 48 | 315 | 2.0 | 3.0 | 0.00 | 0.00 | 0.00 | 10 | 1008.1 |
| 20260507004632 | 48 | 315 | 2.0 | 3.0 | 0.00 | 0.00 | 0.00 | 10 | 1008.0 |
| 20260507004122 | 49 | 315 | 2.0 | 3.0 | 0.00 | 0.00 | 0.00 | 10 | 1008.0 |
| 20260507003612 | 49 | 315 | 1.0 | 3.0 | 0.00 | 0.00 | 0.00 | 10 | 1008.0 |
| 20260507003102 | 49 | 315 | 1.0 | 2.0 | 0.00 | 0.00 | 0.00 | 10 | 1008.0 |
| 20260507002551 | 49 | 315 | 1.0 | 2.0 | 0.00 | 0.00 | 0.00 | 10 | 1007.9 |
| 20260507001531 | 49 | 315 | 0.0 | 1.0 | 0.00 | 0.00 | 0.00 | 10 | 1007.7 |
| 20260507001020 | 49 | 315 | 0.0 | 0.0 | 0.00 | 0.00 | 0.00 | 10 | 1007.5 |
| 20260507000510 | 49 | 315 | 0.0 | 1.0 | 0.00 | 0.00 | 0.00 | 10 | 1007.4 |
| 20260507000000 | 49 | 315 | 0.0 | 0.0 | 0.00 | 0.00 | 0.00 | 10 | 1007.4 |
| 20260506235450 | 49 | 315 | 0.0 | 1.0 | 0.00 | 0.00 | 0.00 | 10 | 1007.3 |
| 20260506234939 | 49 | 315 | 0.0 | 1.0 | 0.00 | 0.00 | 0.00 | 10 | 1007.3 |
| 20260506234429 | 49 | 315 | 0.0 | 1.0 | 0.00 | 0.00 | 0.00 | 10 | 1007.2 |
| 20260506233919 | 50 | 315 | 0.0 | 1.0 | 0.00 | 0.00 | 0.00 | 10 | 1007.1 |
| 20260506233408 | 50 | 315 | 1.0 | 1.0 | 0.00 | 0.00 | 0.00 | 10 | 1007.1 |
| 20260506232905 | 0 | 315 | 0.0 | 1.0 | 0.00 | 0.00 | 0.00 | ||
| 20260506232858 | 50 | 315 | 0.0 | 1.0 | 0.00 | 0.00 | 0.00 | 10 | 1007.1 |
| 20260506232348 | 50 | 315 | 0.0 | 1.0 | 0.00 | 0.00 | 0.00 | 10 | 1007.1 |
| 20260506231838 | 50 | 315 | 1.0 | 2.0 | 0.00 | 0.00 | 0.00 | 10 | 1007.1 |
| 20260506231327 | 50 | 315 | 0.0 | 2.0 | 0.00 | 0.00 | 0.00 | 10 | 1007.1 |
| 20260506230306 | 50 | 315 | 1.0 | 3.0 | 0.00 | 0.00 | 0.00 | 10 | 1007.2 |
| 20260506225756 | 50 | 315 | 0.0 | 2.0 | 0.00 | 0.00 | 0.00 | 10 | 1007.0 |
| 20260506225246 | 50 | 315 | 1.0 | 3.0 | 0.00 | 0.00 | 0.00 | 10 | 1006.7 |
| 20260506224735 | 51 | 315 | 1.0 | 3.0 | 0.00 | 0.00 | 0.00 | 10 | 1006.7 |
| 20260506224225 | 51 | 315 | 2.0 | 4.0 | 0.00 | 0.00 | 0.00 | 10 | 1006.6 |
| 20260506223714 | 52 | 315 | 2.0 | 4.0 | 0.00 | 0.00 | 0.00 | 10 | 1006.7 |
| 20260506223204 | 53 | 315 | 1.0 | 3.0 | 0.00 | 0.00 | 0.00 | 10 | 1006.6 |
| 20260506222653 | 53 | 315 | 2.0 | 3.0 | 0.00 | 0.00 | 0.00 | 10 | 1006.7 |
| 20260506222143 | 54 | 315 | 2.0 | 5.0 | 0.00 | 0.00 | 0.00 | 10 | 1006.7 |
| 20260506221632 | 54 | 315 | 2.0 | 4.0 | 0.00 | 0.00 | 0.00 | 10 | 1006.6 |
| 20260506221122 | 54 | 315 | 4.0 | 5.0 | 0.00 | 0.00 | 0.00 | 10 | 1006.5 |
| 20260506220611 | 54 | 315 | 3.0 | 4.0 | 0.00 | 0.00 | 0.00 | 10 | 1006.2 |
| 20260506220101 | 55 | 315 | 3.0 | 4.0 | 0.00 | 0.00 | 0.00 | 10 | 1006.2 |
| 20260506215550 | 54 | 315 | 2.0 | 4.0 | 0.00 | 0.00 | 0.00 | 10 | 1006.1 |
| 20260506215039 | 54 | 315 | 1.0 | 3.0 | 0.00 | 0.00 | 0.00 | 10 | 1006.0 |
| 20260506214529 | 54 | 315 | 1.0 | 3.0 | 0.00 | 0.00 | 0.00 | 10 | 1006.0 |
| 20260506214018 | 54 | 315 | 0.0 | 1.0 | 0.00 | 0.00 | 0.00 | 10 | 1005.9 |
| 20260506213508 | 54 | 315 | 1.0 | 2.0 | 0.00 | 0.00 | 0.00 | 10 | 1005.8 |
| 20260506212957 | 54 | 315 | 1.0 | 2.0 | 0.00 | 0.00 | 0.00 | 10 | 1005.7 |
| 20260506212447 | 54 | 315 | 1.0 | 3.0 | 0.00 | 0.00 | 0.00 | 10 | 1005.8 |
| 20260506211425 | 54 | 315 | 0.0 | 1.0 | 0.00 | 0.00 | 0.00 | 10 | 1005.7 |
| 20260506210915 | 54 | 315 | 0.0 | 1.0 | 0.00 | 0.00 | 0.00 | 10 | 1005.7 |
| 20260506210404 | 53 | 315 | 0.0 | 1.0 | 0.00 | 0.00 | 0.00 | 10 | 1005.7 |
| 20260506205343 | 53 | 315 | 0.0 | 0.0 | 0.00 | 0.00 | 0.00 | 10 | 1005.7 |
| 20260506204833 | 53 | 315 | 0.0 | 1.0 | 0.00 | 0.00 | 0.00 | 10 | 1005.7 |
| 20260506204322 | 53 | 315 | 0.0 | 0.0 | 0.00 | 0.00 | 0.00 | 10 | 1005.7 |
| 20260506203812 | 53 | 315 | 0.0 | 1.0 | 0.00 | 0.00 | 0.00 | 10 | 1005.7 |
| 20260506203301 | 53 | 315 | 0.0 | 0.0 | 0.00 | 0.00 | 0.00 | 10 | 1005.7 |
| 20260506202751 | 53 | 315 | 0.0 | 0.0 | 0.00 | 0.00 | 0.00 | 10 | 1005.8 |
| 20260506202240 | 54 | 315 | 0.0 | 0.0 | 0.00 | 0.00 | 0.00 | 10 | 1005.8 |
| 20260506201730 | 54 | 315 | 0.0 | 0.0 | 0.00 | 0.00 | 0.00 | 10 | 1005.8 |
| 20260506201219 | 54 | 315 | 0.0 | 0.0 | 0.00 | 0.00 | 0.00 | 10 | 1005.8 |
| 20260506200709 | 54 | 315 | 0.0 | 0.0 | 0.00 | 0.00 | 0.00 | 10 | 1005.8 |
| 20260506200158 | 55 | 315 | 0.0 | 0.0 | 0.00 | 0.00 | 0.00 | 10 | 1005.9 |
| 20260506195647 | 55 | 315 | 0.0 | 1.0 | 0.00 | 0.00 | 0.00 | 10 | 1006.0 |
| 20260506194626 | 55 | 315 | 0.0 | 1.0 | 0.00 | 0.00 | 0.00 | 10 | 1005.8 |
| 20260506194116 | 56 | 315 | 0.0 | 1.0 | 0.00 | 0.00 | 0.00 | 10 | 1005.8 |
| 20260506193605 | 56 | 315 | 0.0 | 1.0 | 0.00 | 0.00 | 0.00 | 10 | 1005.8 |
| 20260506193054 | 56 | 315 | 0.0 | 1.0 | 0.00 | 0.00 | 0.00 | 10 | 1005.7 |
| 20260506192544 | 56 | 315 | 0.0 | 2.0 | 0.00 | 0.00 | 0.00 | 10 | 1005.7 |
| 20260506192033 | 56 | 315 | 1.0 | 1.0 | 0.00 | 0.00 | 0.00 | 10 | 1005.6 |
| 20260506191522 | 56 | 315 | 0.0 | 2.0 | 0.00 | 0.00 | 0.00 | 10 | 1005.6 |
| 20260506191011 | 57 | 315 | 0.0 | 1.0 | 0.00 | 0.00 | 0.00 | 10 | 1005.6 |
| 20260506190501 | 57 | 315 | 0.0 | 1.0 | 0.00 | 0.00 | 0.00 | 10 | 1005.5 |
| 20260506185950 | 57 | 315 | 0.0 | 1.0 | 0.00 | 0.00 | 0.00 | 10 | 1005.4 |
| 20260506184928 | 58 | 315 | 0.0 | 1.0 | 0.00 | 0.00 | 0.00 | 95 | 1005.5 |
| 20260506184418 | 58 | 315 | 0.0 | 2.0 | 0.00 | 0.00 | 0.00 | 93 | 1005.4 |
| 20260506183907 | 58 | 315 | 0.0 | 1.0 | 0.00 | 0.00 | 0.00 | 91 | 1005.4 |
| 20260506182845 | 59 | 315 | 0.0 | 2.0 | 0.00 | 0.00 | 0.00 | 89 | 1005.3 |
| 20260506182335 | 59 | 315 | 0.0 | 1.0 | 0.00 | 0.00 | 0.00 | 84 | 1005.2 |
| 20260506181824 | 59 | 315 | 1.0 | 1.0 | 0.00 | 0.00 | 0.00 | 83 | 1005.1 |
| 20260506181313 | 60 | 315 | 0.0 | 1.0 | 0.00 | 0.00 | 0.00 | 80 | 1005.1 |
| 20260506180802 | 60 | 315 | 1.0 | 2.0 | 0.00 | 0.00 | 0.00 | 77 | 1005.2 |
| 20260506180251 | 61 | 315 | 1.0 | 3.0 | 0.00 | 0.00 | 0.00 | 74 | 1005.1 |
| 20260506175741 | 61 | 315 | 1.0 | 2.0 | 0.00 | 0.00 | 0.00 | 70 | 1005.1 |
| 20260506175229 | 62 | 315 | 1.0 | 3.0 | 0.00 | 0.00 | 0.00 | 66 | 1005.0 |
| 20260506174718 | 63 | 315 | 1.0 | 3.0 | 0.00 | 0.00 | 0.00 | 64 | 1004.8 |
| 20260506174207 | 63 | 315 | 1.0 | 2.0 | 0.00 | 0.00 | 0.00 | 62 | 1005.0 |
| 20260506173656 | 64 | 315 | 1.0 | 2.0 | 0.00 | 0.00 | 0.00 | 59 | 1005.0 |
| 20260506173145 | 65 | 315 | 1.0 | 3.0 | 0.00 | 0.00 | 0.00 | 57 | 1005.1 |
| 20260506172633 | 66 | 315 | 2.0 | 3.0 | 0.00 | 0.00 | 0.00 | 54 | 1005.0 |
| 20260506172123 | 68 | 315 | 1.0 | 5.0 | 0.00 | 0.00 | 0.00 | 51 | 1005.0 |
| 20260506171611 | 70 | 315 | 1.0 | 2.0 | 0.00 | 0.00 | 0.00 | 49 | 1005.0 |
| 20260506171059 | 72 | 315 | 1.0 | 3.0 | 0.00 | 0.00 | 0.00 | 47 | 1005.0 |
| 20260506170547 | 73 | 315 | 1.0 | 3.0 | 0.00 | 0.00 | 0.00 | 46 | 1004.9 |
| 20260506170036 | 74 | 315 | 1.0 | 3.0 | 0.00 | 0.00 | 0.00 | 45 | 1004.9 |
| 20260506165524 | 75 | 315 | 1.0 | 2.0 | 0.00 | 0.00 | 0.00 | 44 | 1004.8 |
| 20260506165012 | 76 | 315 | 2.0 | 4.0 | 0.00 | 0.00 | 0.00 | 44 | 1005.0 |
| 20260506164500 | 76 | 315 | 2.0 | 4.0 | 0.00 | 0.00 | 0.00 | 43 | 1004.9 |
| 20260506163948 | 77 | 315 | 2.0 | 6.0 | 0.00 | 0.00 | 0.00 | 45 | 1005.1 |
| 20260506163436 | 76 | 315 | 1.0 | 4.0 | 0.00 | 0.00 | 0.00 | 46 | 1005.2 |
| 20260506162924 | 75 | 315 | 1.0 | 2.0 | 0.00 | 0.00 | 0.00 | 48 | 1005.3 |
| 20260506162412 | 74 | 315 | 1.0 | 4.0 | 0.00 | 0.00 | 0.00 | 49 | 1005.4 |
| 20260506161901 | 74 | 315 | 1.0 | 2.0 | 0.00 | 0.00 | 0.00 | 50 | 1005.4 |
| 20260506161349 | 71 | 315 | 2.0 | 5.0 | 0.00 | 0.00 | 0.00 | 50 | 1005.5 |
| 20260506160837 | 71 | 315 | 1.0 | 5.0 | 0.00 | 0.00 | 0.00 | 51 | 1005.5 |
| 20260506155814 | 71 | 315 | 2.0 | 4.0 | 0.00 | 0.00 | 0.00 | 51 | 1005.4 |
| 20260506155305 | 69 | 315 | 2.0 | 5.0 | 0.00 | 0.00 | 0.00 | 55 | 1005.6 |
| 20260506154751 | 69 | 315 | 3.0 | 6.0 | 0.00 | 0.00 | 0.00 | 54 | 1005.7 |
| 20260506153728 | 68 | 315 | 1.0 | 5.0 | 0.00 | 0.00 | 0.00 | 58 | 1005.8 |
| 20260506153217 | 68 | 315 | 1.0 | 3.0 | 0.00 | 0.00 | 0.00 | 57 | 1005.8 |
| 20260506152705 | 68 | 315 | 1.0 | 3.0 | 0.00 | 0.00 | 0.00 | 56 | 1005.9 |
| 20260506151642 | 72 | 315 | 1.0 | 2.0 | 0.00 | 0.00 | 0.00 | 53 | 1005.9 |
| 20260506151130 | 74 | 315 | 1.0 | 5.0 | 0.00 | 0.00 | 0.00 | 51 | 1006.0 |
| 20260506150107 | 75 | 315 | 1.0 | 3.0 | 0.00 | 0.00 | 0.00 | 54 | 1006.1 |
| 20260506145555 | 73 | 315 | 2.0 | 5.0 | 0.00 | 0.00 | 0.00 | 55 | 1006.3 |
| 20260506145043 | 72 | 315 | 1.0 | 3.0 | 0.00 | 0.00 | 0.00 | 57 | 1006.4 |
| 20260506144532 | 69 | 315 | 2.0 | 4.0 | 0.00 | 0.00 | 0.00 | 59 | 1006.5 |
| 20260506144020 | 69 | 315 | 1.0 | 3.0 | 0.00 | 0.00 | 0.00 | 59 | 1006.5 |
| 20260506143509 | 70 | 315 | 1.0 | 3.0 | 0.00 | 0.00 | 0.00 | 60 | 1006.5 |
| 20260506142957 | 69 | 315 | 1.0 | 2.0 | 0.00 | 0.00 | 0.00 | 60 | 1006.6 |
| 20260506142446 | 68 | 315 | 1.0 | 3.0 | 0.00 | 0.00 | 0.00 | 61 | 1006.7 |
| 20260506141934 | 68 | 315 | 1.0 | 5.0 | 0.00 | 0.00 | 0.00 | 60 | 1006.7 |
| 20260506141423 | 69 | 315 | 1.0 | 4.0 | 0.00 | 0.00 | 0.00 | 61 | 1006.8 |
| 20260506140911 | 68 | 315 | 2.0 | 5.0 | 0.00 | 0.00 | 0.00 | 61 | 1006.8 |
| 20260506140400 | 68 | 315 | 2.0 | 5.0 | 0.00 | 0.00 | 0.00 | 63 | 1006.8 |
| 20260506135848 | 67 | 315 | 1.0 | 3.0 | 0.00 | 0.00 | 0.00 | 61 | 1006.9 |
| 20260506135337 | 68 | 315 | 1.0 | 3.0 | 0.00 | 0.00 | 0.00 | 61 | 1006.9 |
| 20260506134826 | 67 | 315 | 1.0 | 3.0 | 0.00 | 0.00 | 0.00 | 62 | 1006.9 |
| 20260506133803 | 67 | 315 | 1.0 | 2.0 | 0.00 | 0.00 | 0.00 | 61 | 1007.1 |
| 20260506133252 | 68 | 315 | 1.0 | 2.0 | 0.00 | 0.00 | 0.00 | 60 | 1007.0 |
| 20260506132229 | 68 | 315 | 2.0 | 5.0 | 0.00 | 0.00 | 0.00 | 60 | 1007.2 |
| 20260506131718 | 67 | 315 | 1.0 | 3.0 | 0.00 | 0.00 | 0.00 | 61 | 1007.3 |
| 20260506131206 | 67 | 315 | 2.0 | 4.0 | 0.00 | 0.00 | 0.00 | 61 | 1007.3 |
| 20260506130655 | 67 | 315 | 1.0 | 2.0 | 0.00 | 0.00 | 0.00 | 63 | 1007.5 |
| 20260506130144 | 67 | 315 | 2.0 | 5.0 | 0.00 | 0.00 | 0.00 | 60 | 1007.6 |
| 20260506125632 | 67 | 315 | 4.0 | 6.0 | 0.00 | 0.00 | 0.00 | 61 | 1007.6 |
| 20260506125121 | 67 | 315 | 2.0 | 4.0 | 0.00 | 0.00 | 0.00 | 62 | 1007.6 |
| 20260506124610 | 64 | 315 | 1.0 | 3.0 | 0.00 | 0.00 | 0.00 | 69 | 1007.7 |
| 20260506124058 | 64 | 315 | 1.0 | 3.0 | 0.00 | 0.00 | 0.00 | 70 | 1007.8 |
| 20260506123547 | 64 | 315 | 1.0 | 2.0 | 0.00 | 0.00 | 0.00 | 69 | 1007.9 |
| 20260506123036 | 64 | 315 | 1.0 | 2.0 | 0.00 | 0.00 | 0.00 | 67 | 1008.0 |
| 20260506122525 | 65 | 315 | 2.0 | 4.0 | 0.00 | 0.00 | 0.00 | 66 | 1008.0 |
| 20260506122014 | 65 | 315 | 3.0 | 6.0 | 0.00 | 0.00 | 0.00 | 63 | 1008.0 |
| 20260506121502 | 66 | 315 | 2.0 | 3.0 | 0.00 | 0.00 | 0.00 | 64 | 1008.0 |
| 20260506120951 | 66 | 315 | 2.0 | 4.0 | 0.00 | 0.00 | 0.00 | 63 | 1008.0 |
| 20260506120440 | 67 | 315 | 2.0 | 5.0 | 0.00 | 0.00 | 0.00 | 61 | 1008.0 |
| 20260506115928 | 67 | 315 | 2.0 | 4.0 | 0.00 | 0.00 | 0.00 | 64 | 1008.0 |
| 20260506115417 | 67 | 315 | 2.0 | 4.0 | 0.00 | 0.00 | 0.00 | 64 | 1008.1 |
| 20260506114906 | 67 | 315 | 2.0 | 5.0 | 0.00 | 0.00 | 0.00 | 66 | 1008.1 |
| 20260506114354 | 67 | 315 | 2.0 | 4.0 | 0.00 | 0.00 | 0.00 | 66 | 1008.0 |
| 20260506113843 | 67 | 315 | 3.0 | 5.0 | 0.00 | 0.00 | 0.00 | 65 | 1008.1 |
| 20260506113332 | 67 | 315 | 2.0 | 4.0 | 0.00 | 0.00 | 0.00 | 64 | 1008.1 |
| 20260506112821 | 67 | 315 | 3.0 | 5.0 | 0.00 | 0.00 | 0.00 | 67 | 1008.2 |
| 20260506112309 | 67 | 315 | 2.0 | 4.0 | 0.00 | 0.00 | 0.00 | 65 | 1008.2 |
| 20260506111246 | 68 | 315 | 2.0 | 4.0 | 0.00 | 0.00 | 0.00 | 62 | 1008.2 |
| 20260506110735 | 68 | 315 | 3.0 | 5.0 | 0.00 | 0.00 | 0.00 | 61 | 1008.3 |
| 20260506110224 | 68 | 315 | 3.0 | 6.0 | 0.00 | 0.00 | 0.00 | 64 | 1008.4 |
| 20260506105712 | 68 | 315 | 3.0 | 5.0 | 0.00 | 0.00 | 0.00 | 67 | 1008.5 |
| 20260506105201 | 67 | 315 | 4.0 | 6.0 | 0.00 | 0.00 | 0.00 | 69 | 1008.5 |
| 20260506104649 | 67 | 315 | 2.0 | 4.0 | 0.00 | 0.00 | 0.00 | 71 | 1008.5 |
| 20260506104138 | 67 | 315 | 1.0 | 4.0 | 0.00 | 0.00 | 0.00 | 81 | 1008.5 |
| 20260506103627 | 66 | 315 | 2.0 | 5.0 | 0.00 | 0.00 | 0.00 | 82 | 1008.5 |
| 20260506103115 | 65 | 315 | 1.0 | 3.0 | 0.00 | 0.00 | 0.00 | 88 | 1008.6 |
| 20260506102604 | 64 | 315 | 2.0 | 4.0 | 0.00 | 0.00 | 0.00 | 86 | 1008.5 |
| 20260506102053 | 64 | 315 | 2.0 | 3.0 | 0.00 | 0.00 | 0.00 | 86 | 1008.6 |
| 20260506101542 | 64 | 315 | 2.0 | 4.0 | 0.00 | 0.00 | 0.00 | 89 | 1008.7 |
| 20260506101031 | 64 | 315 | 3.0 | 5.0 | 0.00 | 0.00 | 0.00 | 87 | 1008.8 |
| 20260506100519 | 64 | 315 | 3.0 | 4.0 | 0.00 | 0.00 | 0.00 | 94 | 1008.8 |
| 20260506100008 | 64 | 315 | 2.0 | 3.0 | 0.00 | 0.00 | 0.00 | 10 | 1008.8 |
| 20260506094946 | 63 | 315 | 3.0 | 5.0 | 0.00 | 0.00 | 0.00 | 98 | 1008.7 |
| 20260506094435 | 62 | 315 | 3.0 | 6.0 | 0.00 | 0.00 | 0.00 | 10 | 1008.8 |
| 20260506093924 | 62 | 315 | 3.0 | 4.0 | 0.00 | 0.00 | 0.00 | 10 | 1008.8 |
| 20260506093413 | 62 | 315 | 2.0 | 4.0 | 0.00 | 0.00 | 0.00 | 10 | 1008.7 |
| 20260506092902 | 61 | 315 | 3.0 | 4.0 | 0.00 | 0.00 | 0.00 | 10 | 1008.8 |
| 20260506092351 | 61 | 315 | 3.0 | 4.0 | 0.00 | 0.00 | 0.00 | 10 | 1008.7 |
| 20260506091840 | 61 | 315 | 3.0 | 5.0 | 0.00 | 0.00 | 0.00 | 10 | 1008.6 |
| 20260506091329 | 61 | 315 | 3.0 | 5.0 | 0.00 | 0.00 | 0.00 | 10 | 1008.6 |
| 20260506090818 | 60 | 315 | 3.0 | 4.0 | 0.00 | 0.00 | 0.00 | 10 | 1008.6 |
| 20260506085245 | 58 | 315 | 3.0 | 4.0 | 0.00 | 0.00 | 0.00 | 10 | 1008.7 |
| 20260506084735 | 58 | 315 | 3.0 | 5.0 | 0.00 | 0.00 | 0.00 | 10 | 1008.6 |
| 20260506083202 | 57 | 315 | 3.0 | 3.0 | 0.00 | 0.00 | 0.00 | 10 | 1008.7 |
| 20260506082651 | 57 | 315 | 2.0 | 4.0 | 0.00 | 0.00 | 0.00 | 10 | 1008.7 |
| 20260506082141 | 57 | 315 | 3.0 | 5.0 | 0.00 | 0.00 | 0.00 | 10 | 1008.6 |
| 20260506081630 | 57 | 315 | 3.0 | 5.0 | 0.00 | 0.00 | 0.00 | 10 | 1008.6 |
| 20260506080609 | 56 | 315 | 4.0 | 6.0 | 0.00 | 0.00 | 0.00 | 10 | 1008.8 |
| 20260506073504 | 56 | 315 | 2.0 | 4.0 | 0.00 | 0.00 | 0.00 | 10 | 1008.6 |
| 20260506072954 | 56 | 315 | 4.0 | 6.0 | 0.00 | 0.00 | 0.00 | 10 | 1008.6 |
| 20260506072443 | 56 | 315 | 3.0 | 5.0 | 0.00 | 0.00 | 0.00 | 10 | 1008.8 |
| 20260506071932 | 56 | 315 | 2.0 | 3.0 | 0.00 | 0.00 | 0.00 | 10 | 1008.7 |
| 20260506071422 | 56 | 315 | 3.0 | 3.0 | 0.00 | 0.00 | 0.00 | 10 | 1008.7 |
| 20260506070911 | 55 | 315 | 3.0 | 6.0 | 0.00 | 0.00 | 0.00 | 10 | 1008.6 |
| 20260506070401 | 55 | 315 | 4.0 | 5.0 | 0.00 | 0.00 | 0.00 | 10 | 1008.7 |
| 20260506062236 | 53 | 315 | 2.0 | 4.0 | 0.00 | 0.00 | 0.00 | 10 | 1008.4 |
| 20260506061215 | 52 | 315 | 2.0 | 4.0 | 0.00 | 0.00 | 0.00 | 10 | 1008.5 |
| 20260506051010 | 49 | 315 | 2.0 | 3.0 | 0.00 | 0.00 | 0.00 | 10 | 1008.0 |
| 20260506050500 | 49 | 315 | 2.0 | 4.0 | 0.00 | 0.00 | 0.00 | 10 | 1008.0 |
| 20260506044929 | 49 | 315 | 2.0 | 3.0 | 0.00 | 0.00 | 0.00 | 10 | 1007.9 |
| 20260506044419 | 49 | 315 | 2.0 | 5.0 | 0.00 | 0.00 | 0.00 | 10 | 1007.8 |
| 20260506043909 | 49 | 315 | 2.0 | 4.0 | 0.00 | 0.00 | 0.00 | 10 | 1007.8 |
| 20260506043359 | 49 | 315 | 3.0 | 5.0 | 0.00 | 0.00 | 0.00 | 10 | 1007.8 |
| 20260506042338 | 49 | 315 | 2.0 | 3.0 | 0.00 | 0.00 | 0.00 | 10 | 1007.7 |
| 20260506041828 | 49 | 315 | 2.0 | 3.0 | 0.00 | 0.00 | 0.00 | 10 | 1007.6 |
| 20260506041317 | 49 | 315 | 2.0 | 3.0 | 0.00 | 0.00 | 0.00 | 10 | 1007.5 |
| 20260506040807 | 49 | 315 | 2.0 | 2.0 | 0.00 | 0.00 | 0.00 | 10 | 1007.5 |
| 20260506040257 | 49 | 315 | 2.0 | 3.0 | 0.00 | 0.00 | 0.00 | 10 | 1007.4 |
| 20260506035747 | 49 | 315 | 2.0 | 3.0 | 0.00 | 0.00 | 0.00 | 10 | 1007.4 |
| 20260506035236 | 49 | 315 | 2.0 | 4.0 | 0.00 | 0.00 | 0.00 | 10 | 1007.3 |
| 20260506034726 | 49 | 315 | 2.0 | 2.0 | 0.00 | 0.00 | 0.00 | 10 | 1007.3 |
| 20260506033705 | 49 | 315 | 2.0 | 2.0 | 0.00 | 0.00 | 0.00 | 10 | 1007.2 |
| 20260506033155 | 49 | 315 | 2.0 | 2.0 | 0.00 | 0.00 | 0.00 | 10 | 1007.1 |
| 20260506032645 | 50 | 315 | 1.0 | 2.0 | 0.00 | 0.00 | 0.00 | 10 | 1007.2 |
| 20260506032135 | 50 | 315 | 1.0 | 2.0 | 0.00 | 0.00 | 0.00 | 10 | 1007.3 |
| 20260506031624 | 50 | 315 | 1.0 | 4.0 | 0.00 | 0.00 | 0.00 | 10 | 1007.4 |
| 20260506031114 | 50 | 315 | 2.0 | 3.0 | 0.00 | 0.00 | 0.00 | 10 | 1007.4 |
| 20260506030603 | 50 | 315 | 2.0 | 3.0 | 0.00 | 0.00 | 0.00 | 10 | 1007.5 |
| 20260506030053 | 50 | 315 | 2.0 | 3.0 | 0.00 | 0.00 | 0.00 | 10 | 1007.6 |
| 20260506025543 | 50 | 315 | 2.0 | 3.0 | 0.00 | 0.00 | 0.00 | 10 | 1007.5 |
| 20260506025032 | 50 | 315 | 2.0 | 3.0 | 0.00 | 0.00 | 0.00 | 10 | 1007.3 |
| 20260506024522 | 50 | 315 | 2.0 | 2.0 | 0.00 | 0.00 | 0.00 | 10 | 1007.3 |
| 20260506024012 | 50 | 315 | 2.0 | 2.0 | 0.00 | 0.00 | 0.00 | 10 | 1007.3 |
| 20260506023501 | 50 | 315 | 1.0 | 2.0 | 0.00 | 0.00 | 0.00 | 10 | 1007.2 |
| 20260506022951 | 50 | 315 | 0.0 | 1.0 | 0.00 | 0.00 | 0.00 | 10 | 1007.1 |
| 20260506022441 | 50 | 315 | 0.0 | 0.0 | 0.00 | 0.00 | 0.00 | 10 | 1007.1 |
| 20260506021930 | 51 | 315 | 0.0 | 0.0 | 0.00 | 0.00 | 0.00 | 10 | 1007.0 |
| 20260506021420 | 51 | 315 | 0.0 | 0.0 | 0.00 | 0.00 | 0.00 | 10 | 1007.0 |
| 20260506020914 | 51 | 315 | 0.0 | 0.0 | 0.00 | 0.00 | 0.00 | 10 | 1007.0 |
| 20260506020359 | 51 | 315 | 0.0 | 1.0 | 0.00 | 0.00 | 0.00 | 10 | 1007.0 |
| 20260506015849 | 51 | 315 | 1.0 | 2.0 | 0.00 | 0.00 | 0.00 | 10 | 1007.0 |
| 20260506015338 | 51 | 315 | 1.0 | 3.0 | 0.00 | 0.00 | 0.00 | 10 | 1006.9 |
| 20260506014828 | 51 | 315 | 1.0 | 1.0 | 0.00 | 0.00 | 0.00 | 10 | 1006.9 |
| 20260506014318 | 51 | 315 | 1.0 | 2.0 | 0.00 | 0.00 | 0.00 | 10 | 1006.8 |
| 20260506013807 | 51 | 315 | 1.0 | 2.0 | 0.00 | 0.00 | 0.00 | 10 | 1006.7 |
| 20260506013257 | 52 | 315 | 1.0 | 3.0 | 0.00 | 0.00 | 0.00 | 10 | 1006.7 |
| 20260506012746 | 52 | 315 | 0.0 | 2.0 | 0.00 | 0.00 | 0.00 | 10 | 1006.7 |
| 20260506012236 | 52 | 315 | 0.0 | 1.0 | 0.00 | 0.00 | 0.00 | 10 | 1006.7 |